Hourly Weather Baronskaya

Today, 8 May, Saturday

Time Temperature Precipitation Wind Pressure Humidity
00:00 +12°C° 0 mm 1 mps 743 mmHg 76%
01:00 +12°C° 0 mm 1 mps 743 mmHg 77%
02:00 +12°C° 0 mm 1 mps 743 mmHg 79%
03:00 +11°C° 0 mm 1 mps 743 mmHg 82%
04:00 +10°C° 0 mm 1 mps 743 mmHg 85%
05:00 +12°C° 0 mm 1 mps 743 mmHg 79%
06:00 +13°C° 0 mm 1 mps 743 mmHg 73%
07:00 +15°C° 0 mm 1 mps 743 mmHg 67%
08:00 +18°C° 0 mm 1 mps 743 mmHg 59%
09:00 +19°C° 0 mm 1 mps 743 mmHg 50%
10:00 +21°C° 0 mm 1 mps 743 mmHg 41%
11:00 +21°C° 0 mm 1 mps 743 mmHg 41%
12:00 +21°C° 0 mm 1 mps 742 mmHg 41%
13:00 +21°C° 0 mm 1 mps 742 mmHg 42%
14:00 +20°C° 0 mm 2 mps 742 mmHg 41%
15:00 +20°C° 0 mm 2 mps 742 mmHg 41%
16:00 +20°C° 0 mm 2 mps 742 mmHg 41%
17:00 +20°C° 0 mm 1 mps 742 mmHg 47%
18:00 +18°C° 0 mm 1 mps 742 mmHg 53%
19:00 +16°C° 0 mm 1 mps 742 mmHg 59%
20:00 +15°C° 0 mm 1 mps 742 mmHg 64%
21:00 +14°C° 0 mm 1 mps 742 mmHg 68%
22:00 +12°C° 0 mm 0 mps 742 mmHg 72%
23:00 +11°C° 0 mm 0 mps 742 mmHg 74%

Tomorrow, 9 May, Sunday

Time Temperature Precipitation Wind Pressure Humidity
00:00 +11°C° 0 mm 0 mps 743 mmHg 76%
01:00 +10°C° 0 mm 0 mps 743 mmHg 77%
02:00 +10°C° 0 mm 0 mps 743 mmHg 78%
03:00 +11°C° 0 mm 1 mps 743 mmHg 79%
04:00 +11°C° 0 mm 1 mps 743 mmHg 80%
05:00 +12°C° 0 mm 1 mps 743 mmHg 75%
06:00 +13°C° 0 mm 1 mps 743 mmHg 71%
07:00 +15°C° 0 mm 1 mps 743 mmHg 66%
08:00 +16°C° 0 mm 1 mps 743 mmHg 59%
09:00 +18°C° 0 mm 2 mps 743 mmHg 53%
10:00 +20°C° 0 mm 2 mps 743 mmHg 46%
11:00 +20°C° 0 mm 2 mps 743 mmHg 42%
12:00 +21°C° 0 mm 2 mps 743 mmHg 37%
13:00 +23°C° 0 mm 2 mps 743 mmHg 33%
14:00 +23°C° 0 mm 2 mps 743 mmHg 34%
15:00 +23°C° 0 mm 2 mps 743 mmHg 35%
16:00 +21°C° 0 mm 2 mps 744 mmHg 35%
17:00 +20°C° 0 mm 2 mps 744 mmHg 41%
18:00 +19°C° 0 mm 2 mps 744 mmHg 47%
19:00 +19°C° 0 mm 1 mps 744 mmHg 53%
20:00 +16°C° 0 mm 1 mps 744 mmHg 56%
21:00 +15°C° 0 mm 1 mps 744 mmHg 59%
22:00 +13°C° 0 mm 1 mps 745 mmHg 62%
23:00 +13°C° 0 mm 1 mps 745 mmHg 64%

Day after tomorrow, 10 May, Monday

Time Temperature Precipitation Wind Pressure Humidity
00:00 +12°C° 0 mm 1 mps 745 mmHg 66%
01:00 +12°C° 0 mm 1 mps 745 mmHg 67%
02:00 +11°C° 0 mm 1 mps 746 mmHg 69%
03:00 +11°C° 0 mm 1 mps 746 mmHg 71%
04:00 +10°C° 0 mm 1 mps 746 mmHg 73%
05:00 +12°C° 0 mm 1 mps 746 mmHg 67%
06:00 +14°C° 0 mm 1 mps 747 mmHg 61%
07:00 +16°C° 0 mm 2 mps 747 mmHg 55%
08:00 +18°C° 0 mm 2 mps 747 mmHg 49%
09:00 +20°C° 0 mm 2 mps 747 mmHg 43%
10:00 +23°C° 0 mm 2 mps 747 mmHg 37%
11:00 +23°C° 0 mm 2 mps 747 mmHg 35%
12:00 +24°C° 0 mm 2 mps 747 mmHg 33%
13:00 +25°C° 0 mm 2 mps 747 mmHg 30%
14:00 +24°C° 0 mm 2 mps 747 mmHg 32%
15:00 +24°C° 0 mm 2 mps 747 mmHg 33%
16:00 +24°C° 0 mm 2 mps 747 mmHg 34%
17:00 +21°C° 0 mm 2 mps 747 mmHg 39%
18:00 +21°C° 0 mm 1 mps 747 mmHg 44%
19:00 +20°C° 0 mm 1 mps 747 mmHg 49%
20:00 +19°C° 0 mm 1 mps 747 mmHg 50%
21:00 +18°C° 0 mm 1 mps 747 mmHg 51%
22:00 +18°C° 0 mm 1 mps 747 mmHg 53%
23:00 +16°C° 0 mm 1 mps 747 mmHg 56%

11 May, Tuesday

Time Temperature Precipitation Wind Pressure Humidity
00:00 +15°C° 0 mm 1 mps 747 mmHg 60%
01:00 +14°C° 0 mm 1 mps 747 mmHg 64%
02:00 +13°C° 0 mm 1 mps 747 mmHg 70%
03:00 +13°C° 0 mm 1 mps 748 mmHg 76%
04:00 +13°C° 0 mm 1 mps 748 mmHg 82%
05:00 +13°C° 0.1 mm 2 mps 748 mmHg 84%
06:00 +13°C° 0.1 mm 2 mps 749 mmHg 85%
07:00 +12°C° 0.1 mm 3 mps 749 mmHg 87%
08:00 +12°C° 0.1 mm 3 mps 749 mmHg 82%
09:00 +12°C° 0.1 mm 3 mps 750 mmHg 77%
10:00 +12°C° 0.1 mm 3 mps 750 mmHg 72%
11:00 +14°C° 0 mm 3 mps 750 mmHg 62%
12:00 +17°C° 0 mm 3 mps 750 mmHg 51%
13:00 +18°C° 0 mm 3 mps 750 mmHg 40%
14:00 +18°C° 0 mm 3 mps 750 mmHg 37%
15:00 +18°C° 0 mm 3 mps 750 mmHg 33%
16:00 +19°C° 0 mm 3 mps 750 mmHg 30%
17:00 +17°C° 0 mm 3 mps 750 mmHg 34%
18:00 +16°C° 0 mm 3 mps 751 mmHg 38%
19:00 +15°C° 0 mm 2 mps 751 mmHg 41%
20:00 +13°C° 0 mm 2 mps 751 mmHg 47%
21:00 +12°C° 0 mm 2 mps 751 mmHg 53%
22:00 +10°C° 0 mm 1 mps 752 mmHg 60%
23:00 +10°C° 0 mm 1 mps 752 mmHg 61%

12 May, Wednesday

Time Temperature Precipitation Wind Pressure Humidity
00:00 +9°C° 0 mm 1 mps 752 mmHg 63%
01:00 +9°C° 0 mm 1 mps 752 mmHg 64%
02:00 +10°C° 0 mm 1 mps 752 mmHg 62%
03:00 +10°C° 0 mm 1 mps 752 mmHg 61%
04:00 +11°C° 0 mm 1 mps 752 mmHg 59%
05:00 +11°C° 0 mm 1 mps 752 mmHg 59%
06:00 +11°C° 0 mm 1 mps 752 mmHg 59%
07:00 +12°C° 0 mm 1 mps 753 mmHg 59%
08:00 +12°C° 0 mm 1 mps 753 mmHg 60%
09:00 +12°C° 0 mm 1 mps 752 mmHg 62%
10:00 +13°C° 0 mm 1 mps 752 mmHg 63%
11:00 +15°C° 0 mm 2 mps 752 mmHg 58%
12:00 +18°C° 0 mm 3 mps 752 mmHg 54%
13:00 +20°C° 0 mm 4 mps 751 mmHg 49%
14:00 +20°C° 0 mm 4 mps 751 mmHg 50%
15:00 +20°C° 0 mm 4 mps 751 mmHg 52%
16:00 +21°C° 0 mm 4 mps 751 mmHg 53%
17:00 +19°C° 0 mm 3 mps 751 mmHg 60%
18:00 +18°C° 0 mm 2 mps 751 mmHg 66%
19:00 +18°C° 0 mm 1 mps 751 mmHg 72%
20:00 +16°C° 0 mm 1 mps 751 mmHg 75%
21:00 +15°C° 0 mm 0 mps 751 mmHg 78%
22:00 +14°C° 0 mm 0 mps 751 mmHg 81%
23:00 +14°C° 0 mm 0 mps 751 mmHg 82%

13 May, Thursday

Time Temperature Precipitation Wind Pressure Humidity
00:00 +13°C° 0 mm 0 mps 751 mmHg 83%
01:00 +13°C° 0 mm 0 mps 751 mmHg 84%
02:00 +13°C° 0 mm 0 mps 751 mmHg 85%
03:00 +13°C° 0 mm 0 mps 751 mmHg 85%
04:00 +14°C° 0 mm 1 mps 751 mmHg 85%
05:00 +15°C° 0 mm 1 mps 751 mmHg 80%
06:00 +16°C° 0 mm 1 mps 751 mmHg 75%
07:00 +19°C° 0 mm 1 mps 751 mmHg 70%
08:00 +20°C° 0 mm 1 mps 751 mmHg 62%
09:00 +21°C° 0 mm 2 mps 751 mmHg 54%
10:00 +24°C° 0 mm 2 mps 751 mmHg 46%
11:00 +25°C° 0 mm 2 mps 751 mmHg 42%
12:00 +25°C° 0 mm 2 mps 751 mmHg 39%
13:00 +26°C° 0 mm 3 mps 750 mmHg 36%
14:00 +26°C° 0 mm 3 mps 750 mmHg 36%
15:00 +26°C° 0 mm 3 mps 750 mmHg 35%
16:00 +26°C° 0 mm 3 mps 750 mmHg 35%
17:00 +25°C° 0 mm 2 mps 750 mmHg 41%
18:00 +24°C° 0 mm 2 mps 750 mmHg 47%
19:00 +22°C° 0 mm 1 mps 750 mmHg 52%
20:00 +21°C° 0 mm 1 mps 750 mmHg 57%
21:00 +19°C° 0 mm 1 mps 750 mmHg 62%
22:00 +16°C° 0 mm 1 mps 750 mmHg 66%
23:00 +16°C° 0 mm 1 mps 750 mmHg 68%
Show more